Regional Weather Roundup
Issued by NWS Cleveland, OH

Home | Current Version | Previous Version | Text Only | Print | Product List | Glossary On
Versions: 1 2 3 4 5 6 7 8 9 10 11 12 13 14 15 16 17 18 19 20 21 22 23 24 25 26 27 28 29 30 31 32 33 34 35 36 37 38 39 40 41 42 43 44 45 46 47 48 49 50
000
ASUS41 KCLE 161512
RWRCLE
OHIO REGIONAL WEATHER ROUNDUP
NATIONAL WEATHER SERVICE WILMINGTON, OH
1100 AM EDT WED AUG 16 2017

NOTE: "FAIR" INDICATES FEW OR NO CLOUDS BELOW 12,000 FEET WITH NO
SIGNIFICANT WEATHER AND/OR OBSTRUCTIONS TO VISIBILITY.

OHZ001>008-015>018-024>027-034-035-043-044-161600-
   NORTHWEST OHIO

CITY           SKY/WX    TMP DP  RH WIND       PRES   REMARKS
DEFIANCE       FAIR      78  66  66 E7        30.06S
FINDLAY        PTSUNNY   79  66  64 SE7       30.06S
TOLEDO EXPRESS FAIR      77  65  66 SE8       30.07S
TOLEDO EXEC    FAIR      78  63  59 SE10      30.08S
LIMA           FAIR      81  71  71 SE6       30.06S
$$

OHZ009>014-019>023-028>033-038-089-161600-
   NORTHEAST OHIO

CITY           SKY/WX    TMP DP  RH WIND       PRES   REMARKS
CLE-HOPKINS    FAIR      80  59  48 VRB3      30.10S
CLE-LAKEFRONT  FAIR      77  62  59 N7        30.07F
CUY CO. ARPT   SUNNY     79  64  61 E7        30.10S
LORAIN-ELYRIA  FAIR      75  58  55 CALM      30.09F
ASHTABULA      FAIR      74  58  57 VRB3      30.11S
AKRON-CANTON   FAIR      78  58  49 E6        30.10S
WOOSTER        FAIR      77  59  53 E7        30.10S
MANSFIELD      FAIR      76  64  66 SE7       30.10S
YOUNGSTOWN     FAIR      75  60  59 NW7       30.10S
$$

OHZ042-051>053-060>062-070>072-077>081-161600-
  SOUTHWEST OHIO

CITY           SKY/WX    TMP DP  RH WIND       PRES   REMARKS
CINC-COVINGTON FAIR      84  71  65 S6        30.06R
CINC-LUNKEN    FAIR      82  72  71 S3        30.05S
HAMILTON       FAIR      85  71  63 CALM      30.06R HX  90
DAYTON         FAIR      82  67  60 SW8       30.08R
WRIGHT-PAT AFB MOSUNNY   82  70  68 SW5       30.06R
DAYTON GENERAL FAIR      82  69  64 S3        30.06R
WILMINGTON     FAIR      82  71  69 S5        30.06S
$$

OHZ036-037-039>041-045>050-054>059-063>069-073>076-082>088-161600-
  CENTRAL AND SOUTHEAST OHIO

CITY           SKY/WX    TMP DP  RH WIND       PRES   REMARKS
COLUMBUS       FAIR      80  71  74 SE3       30.06S
OSU AIRPORT    FAIR      80  71  74 E5        30.06S
BOLTON FIELD   PTSUNNY   79  72  78 CALM      30.07R
RICKENBACK AFB FAIR      80  71  74 CALM      30.05F
NEWARK         FAIR      79  70  74 E5        30.07S
MARION         FAIR      79  67  66 S7        30.08S
LANCASTER      FAIR      81  70  69 E3        30.07S
ZANESVILLE     FAIR      76  67  73 E6        30.08S
NEW PHILLY     FAIR      79  66  64 VRB3      30.10R
$$



USA.gov is the U.S. government's official web portal to all federal, state and local government web resources and services.